Private Wetterstation Wechselburg
Wetterdaten: Freitag, 04.05.2018
Datum Zeit Temp. +2m Bodentemp. Temp.+5cm Temp. Wind Windchill X Diff Temp. Feuchte +2m Feuchte +5cm Luftdruck Regen Wind Richtung Richtung Sonnenschein Taupunkt Windchill Windben
04.05.2018 00:00 13,6 C 13,8 C 13,3 C 13,5 C 13,3 C 0,0 C 61 % 66 % 1019,9 hPa 0,0 l/m 2,7 km/h (1 Bft) N-NO 22 0 min 6,2 C 13,3 C 3,2 km/h (1 Bft)
04.05.2018 00:05 13,5 C 13,8 C 13,3 C 13,4 C 13,2 C 0,0 C 62 % 66 % 1019,9 hPa 0,0 l/m 2,4 km/h (1 Bft) O-NO 67 0 min 6,4 C 13,2 C 3,4 km/h (1 Bft)
04.05.2018 00:10 13,4 C 13,8 C 13,3 C 13,3 C 13,1 C 0,0 C 62 % 67 % 1019,9 hPa 0,0 l/m 2,9 km/h (1 Bft) NO 45 0 min 6,3 C 13,1 C 6,4 km/h (2 Bft)
04.05.2018 00:15 13,2 C 13,8 C 13,1 C 13,1 C 13,0 C 0,0 C 62 % 66 % 1020,6 hPa 0,0 l/m 2,9 km/h (1 Bft) O-NO 67 0 min 6,1 C 13,0 C 3,7 km/h (1 Bft)
04.05.2018 00:20 13,2 C 13,9 C 13,1 C 13,1 C 12,9 C 0,0 C 63 % 67 % 1020,6 hPa 0,0 l/m 2,9 km/h (1 Bft) NO 45 0 min 6,3 C 12,9 C 4,7 km/h (1 Bft)
04.05.2018 00:25 13,1 C 13,8 C 12,9 C 13,0 C 12,9 C 0,0 C 63 % 67 % 1020,6 hPa 0,0 l/m 3,2 km/h (1 Bft) O-SO 112 0 min 6,2 C 12,9 C 7,4 km/h (2 Bft)
04.05.2018 00:30 13,1 C 13,8 C 12,9 C 13,0 C 12,8 C 0,0 C 63 % 67 % 1020,6 hPa 0,0 l/m 3,2 km/h (1 Bft) O-NO 67 0 min 6,2 C 12,8 C 2,4 km/h (1 Bft)
04.05.2018 00:35 12,9 C 13,8 C 12,8 C 12,9 C 12,8 C 0,0 C 62 % 67 % 1020,2 hPa 0,0 l/m 3,1 km/h (1 Bft) O-NO 67 0 min 5,8 C 12,8 C 6,1 km/h (2 Bft)
04.05.2018 00:40 12,8 C 13,8 C 12,8 C 12,8 C 12,7 C 0,0 C 63 % 67 % 1020,2 hPa 0,0 l/m 3,1 km/h (1 Bft) NO 45 0 min 5,9 C 12,7 C 4,7 km/h (1 Bft)
04.05.2018 00:45 12,8 C 13,8 C 12,6 C 12,7 C 12,6 C 0,0 C 62 % 66 % 1020,2 hPa 0,0 l/m 3,9 km/h (1 Bft) O 90 0 min 5,7 C 12,6 C 9,8 km/h (2 Bft)
04.05.2018 00:50 12,7 C 13,8 C 12,6 C 12,6 C 12,5 C 0,0 C 61 % 65 % 1020,2 hPa 0,0 l/m 3,9 km/h (1 Bft) O-NO 67 0 min 5,4 C 12,5 C 3,7 km/h (1 Bft)
04.05.2018 00:55 12,7 C 13,8 C 12,5 C 12,6 C 12,5 C 0,0 C 59 % 63 % 1020,4 hPa 0,0 l/m 4,2 km/h (1 Bft) O-NO 67 0 min 4,9 C 12,5 C 8,2 km/h (2 Bft)
04.05.2018 01:00 12,5 C 13,8 C 12,5 C 12,5 C 12,4 C 0,0 C 59 % 62 % 1020,4 hPa 0,0 l/m 4,3 km/h (1 Bft) O-NO 67 0 min 4,7 C 12,4 C 5,0 km/h (1 Bft)
04.05.2018 01:05 12,4 C 13,8 C 12,4 C 12,4 C 12,3 C 0,0 C 57 % 60 % 1020,4 hPa 0,0 l/m 4,8 km/h (1 Bft) NO 45 0 min 4,1 C 12,3 C 5,5 km/h (1 Bft)
04.05.2018 01:10 12,5 C 13,8 C 12,3 C 12,4 C 12,3 C 0,0 C 57 % 60 % 1020,4 hPa 0,0 l/m 4,8 km/h (1 Bft) O-NO 67 0 min 4,2 C 12,3 C 5,1 km/h (1 Bft)
04.05.2018 01:15 12,3 C 13,7 C 12,3 C 12,3 C 12,2 C 0,0 C 57 % 60 % 1020,6 hPa 0,0 l/m 4,8 km/h (1 Bft) O-NO 67 0 min 4,0 C 12,2 C 6,3 km/h (2 Bft)
04.05.2018 01:20 12,3 C 13,7 C 12,1 C 12,2 C 12,1 C 0,0 C 57 % 60 % 1020,6 hPa 0,0 l/m 4,8 km/h (1 Bft) O-NO 67 0 min 4,0 C 12,1 C 7,6 km/h (2 Bft)
04.05.2018 01:25 12,2 C 13,7 C 12,0 C 12,2 C 12,1 C 0,0 C 57 % 61 % 1020,6 hPa 0,0 l/m 4,8 km/h (1 Bft) NO 45 0 min 3,9 C 12,1 C 4,2 km/h (1 Bft)
04.05.2018 01:30 12,1 C 13,7 C 12,0 C 12,1 C 12,0 C 0,0 C 57 % 61 % 1020,6 hPa 0,0 l/m 4,5 km/h (1 Bft) O-NO 67 0 min 3,8 C 12,0 C 4,3 km/h (1 Bft)
04.05.2018 01:35 12,1 C 13,7 C 11,9 C 12,0 C 11,9 C 0,0 C 57 % 62 % 1020,4 hPa 0,0 l/m 4,0 km/h (1 Bft) N-NO 22 0 min 3,8 C 11,9 C 4,3 km/h (1 Bft)
04.05.2018 01:40 11,9 C 13,7 C 11,9 C 11,9 C 11,8 C 0,0 C 58 % 62 % 1020,4 hPa 0,0 l/m 3,9 km/h (1 Bft) O-NO 67 0 min 3,9 C 11,8 C 3,4 km/h (1 Bft)
04.05.2018 01:45 11,9 C 13,7 C 11,9 C 11,8 C 11,7 C 0,0 C 58 % 62 % 1020,4 hPa 0,0 l/m 3,2 km/h (1 Bft) N-NW 337 0 min 3,9 C 11,7 C 3,2 km/h (1 Bft)
04.05.2018 01:50 11,9 C 13,7 C 11,8 C 11,8 C 11,7 C 0,0 C 59 % 62 % 1020,4 hPa 0,0 l/m 2,7 km/h (1 Bft) NO 45 0 min 4,1 C 11,7 C 3,4 km/h (1 Bft)
04.05.2018 01:55 11,7 C 13,7 C 11,8 C 11,7 C 11,6 C 0,0 C 58 % 62 % 1020,9 hPa 0,0 l/m 2,9 km/h (1 Bft) N-NO 22 0 min 3,7 C 11,6 C 7,2 km/h (2 Bft)
04.05.2018 02:00 11,7 C 13,7 C 11,7 C 11,6 C 11,5 C 0,0 C 59 % 62 % 1020,9 hPa 0,0 l/m 3,1 km/h (1 Bft) NO 45 0 min 4,0 C 11,5 C 3,7 km/h (1 Bft)
04.05.2018 02:05 11,7 C 13,6 C 11,6 C 11,6 C 11,5 C 0,0 C 59 % 63 % 1020,9 hPa 0,0 l/m 3,2 km/h (1 Bft) O-NO 67 0 min 4,0 C 11,5 C 5,8 km/h (2 Bft)
04.05.2018 02:10 11,5 C 13,6 C 11,6 C 11,5 C 11,5 C 0,0 C 59 % 63 % 1020,9 hPa 0,0 l/m 3,4 km/h (1 Bft) O-NO 67 0 min 3,8 C 11,5 C 5,0 km/h (1 Bft)
04.05.2018 02:15 11,5 C 13,6 C 11,5 C 11,5 C 11,4 C 0,0 C 60 % 64 % 1021,1 hPa 0,0 l/m 3,1 km/h (1 Bft) O-NO 67 0 min 4,0 C 11,4 C 3,1 km/h (1 Bft)
04.05.2018 02:20 11,4 C 13,6 C 11,5 C 11,4 C 11,3 C 0,0 C 60 % 64 % 1021,1 hPa 0,0 l/m 2,4 km/h (1 Bft) O-NO 67 0 min 3,9 C 11,3 C 3,7 km/h (1 Bft)
04.05.2018 02:25 11,4 C 13,6 C 11,4 C 11,4 C 11,3 C 0,0 C 60 % 64 % 1021,1 hPa 0,0 l/m 2,9 km/h (1 Bft) N-NO 22 0 min 3,9 C 11,3 C 4,5 km/h (1 Bft)
04.05.2018 02:30 11,4 C 13,6 C 11,4 C 11,4 C 11,3 C 0,0 C 61 % 64 % 1021,1 hPa 0,0 l/m 3,4 km/h (1 Bft) O-NO 67 0 min 4,2 C 11,3 C 4,7 km/h (1 Bft)
04.05.2018 02:35 11,3 C 13,6 C 11,5 C 11,3 C 11,3 C 0,0 C 61 % 65 % 1021,2 hPa 0,0 l/m 3,9 km/h (1 Bft) O 90 0 min 4,1 C 11,3 C 5,6 km/h (1 Bft)
04.05.2018 02:40 11,2 C 13,6 C 11,4 C 11,3 C 11,3 C 0,1 C 61 % 64 % 1021,2 hPa 0,0 l/m 3,7 km/h (1 Bft) O-NO 67 0 min 4,0 C 11,3 C 4,0 km/h (1 Bft)
04.05.2018 02:45 11,2 C 13,6 C 11,3 C 11,2 C 11,2 C 0,0 C 61 % 65 % 1021,2 hPa 0,0 l/m 3,7 km/h (1 Bft) O-NO 67 0 min 4,0 C 11,2 C 6,8 km/h (2 Bft)
04.05.2018 02:50 11,3 C 13,6 C 11,3 C 11,3 C 11,2 C 0,0 C 62 % 65 % 1021,2 hPa 0,0 l/m 3,9 km/h (1 Bft) O-NO 67 0 min 4,3 C 11,2 C 4,8 km/h (1 Bft)
04.05.2018 02:55 11,1 C 13,5 C 11,2 C 11,1 C 11,1 C 0,0 C 62 % 65 % 1021,3 hPa 0,0 l/m 4,2 km/h (1 Bft) NO 45 0 min 4,1 C 11,1 C 4,3 km/h (1 Bft)
04.05.2018 03:00 11,1 C 13,5 C 11,3 C 11,1 C 11,1 C 0,0 C 62 % 66 % 1021,3 hPa 0,0 l/m 4,0 km/h (1 Bft) O-NO 67 0 min 4,1 C 11,1 C 4,7 km/h (1 Bft)
04.05.2018 03:05 11,1 C 13,5 C 11,2 C 11,1 C 11,1 C 0,0 C 62 % 65 % 1021,3 hPa 0,0 l/m 4,2 km/h (1 Bft) NO 45 0 min 4,1 C 11,1 C 3,5 km/h (1 Bft)
04.05.2018 03:10 11,1 C 13,5 C 11,1 C 11,1 C 11,0 C 0,0 C 63 % 66 % 1021,3 hPa 0,0 l/m 4,2 km/h (1 Bft) O-NO 67 0 min 4,3 C 11,0 C 4,5 km/h (1 Bft)
04.05.2018 03:15 11,0 C 13,5 C 11,1 C 11,0 C 10,9 C 0,0 C 62 % 66 % 1021,6 hPa 0,0 l/m 3,9 km/h (1 Bft) O-NO 67 0 min 4,0 C 10,9 C 4,7 km/h (1 Bft)
04.05.2018 03:20 10,9 C 13,5 C 11,1 C 10,9 C 10,9 C 0,0 C 62 % 66 % 1021,6 hPa 0,0 l/m 4,2 km/h (1 Bft) O-SO 112 0 min 3,9 C 10,9 C 3,5 km/h (1 Bft)
04.05.2018 03:25 10,8 C 13,5 C 10,9 C 10,8 C 10,8 C 0,0 C 62 % 66 % 1021,6 hPa 0,0 l/m 4,0 km/h (1 Bft) O-NO 67 0 min 3,8 C 10,8 C 5,3 km/h (1 Bft)
04.05.2018 03:30 10,8 C 13,5 C 10,9 C 10,8 C 10,8 C 0,0 C 62 % 66 % 1021,6 hPa 0,0 l/m 4,0 km/h (1 Bft) O-NO 67 0 min 3,8 C 10,8 C 4,3 km/h (1 Bft)
04.05.2018 03:35 10,9 C 13,5 C 10,8 C 10,8 C 10,7 C 0,0 C 62 % 66 % 1021,4 hPa 0,0 l/m 4,0 km/h (1 Bft) O-NO 67 0 min 3,9 C 10,7 C 4,8 km/h (1 Bft)
04.05.2018 03:40 10,8 C 13,4 C 10,9 C 10,8 C 10,7 C 0,0 C 62 % 65 % 1021,4 hPa 0,0 l/m 4,2 km/h (1 Bft) NO 45 0 min 3,8 C 10,7 C 6,1 km/h (2 Bft)
04.05.2018 03:45 10,7 C 13,4 C 10,8 C 10,6 C 10,4 C 0,0 C 61 % 64 % 1021,4 hPa 0,0 l/m 5,5 km/h (1 Bft) NO 45 0 min 3,5 C 10,4 C 15,1 km/h (3 Bft)
04.05.2018 03:50 10,7 C 13,4 C 10,8 C 10,5 C 10,2 C 0,0 C 61 % 64 % 1021,4 hPa 0,0 l/m 6,3 km/h (2 Bft) O-NO 67 0 min 3,5 C 10,2 C 6,9 km/h (2 Bft)
04.05.2018 03:55 10,6 C 13,4 C 10,7 C 10,5 C 10,2 C 0,0 C 61 % 64 % 1021,7 hPa 0,0 l/m 5,8 km/h (2 Bft) O-NO 67 0 min 3,4 C 10,2 C 5,8 km/h (2 Bft)
04.05.2018 04:00 10,7 C 13,4 C 10,6 C 10,6 C 10,3 C 0,0 C 61 % 64 % 1021,7 hPa 0,0 l/m 5,5 km/h (1 Bft) O-NO 67 0 min 3,5 C 10,3 C 6,0 km/h (2 Bft)
04.05.2018 04:05 10,6 C 13,4 C 10,6 C 10,5 C 10,3 C 0,0 C 61 % 65 % 1021,7 hPa 0,0 l/m 4,8 km/h (1 Bft) O-NO 67 0 min 3,4 C 10,3 C 6,0 km/h (2 Bft)
04.05.2018 04:10 10,5 C 13,4 C 10,6 C 10,5 C 10,5 C 0,0 C 61 % 64 % 1021,7 hPa 0,0 l/m 4,3 km/h (1 Bft) O-NO 67 0 min 3,3 C 10,5 C 5,3 km/h (1 Bft)
04.05.2018 04:15 10,5 C 13,4 C 10,7 C 10,5 C 10,5 C 0,0 C 61 % 64 % 1021,6 hPa 0,0 l/m 4,3 km/h (1 Bft) O-NO 67 0 min 3,3 C 10,5 C 4,5 km/h (1 Bft)
04.05.2018 04:20 10,5 C 13,4 C 10,7 C 10,5 C 10,4 C 0,0 C 61 % 65 % 1021,6 hPa 0,0 l/m 4,5 km/h (1 Bft) O-NO 67 0 min 3,3 C 10,4 C 5,8 km/h (2 Bft)
04.05.2018 04:25 10,4 C 13,3 C 10,5 C 10,4 C 10,4 C 0,0 C 61 % 64 % 1021,6 hPa 0,0 l/m 4,5 km/h (1 Bft) O-SO 112 0 min 3,2 C 10,4 C 5,1 km/h (1 Bft)
04.05.2018 04:30 10,4 C 13,3 C 10,5 C 10,5 C 10,5 C 0,1 C 61 % 65 % 1021,6 hPa 0,0 l/m 4,3 km/h (1 Bft) N-NO 22 0 min 3,2 C 10,5 C 3,2 km/h (1 Bft)
04.05.2018 04:35 10,5 C 13,3 C 10,5 C 10,5 C 10,4 C 0,0 C 61 % 65 % 1021,7 hPa 0,0 l/m 3,4 km/h (1 Bft) O-NO 67 0 min 3,3 C 10,4 C 3,5 km/h (1 Bft)
04.05.2018 04:40 10,4 C 13,3 C 10,5 C 10,4 C 10,4 C 0,0 C 61 % 65 % 1021,7 hPa 0,0 l/m 3,2 km/h (1 Bft) NO 45 0 min 3,2 C 10,4 C 3,5 km/h (1 Bft)
04.05.2018 04:45 10,4 C 13,3 C 10,4 C 10,4 C 10,3 C 0,0 C 61 % 64 % 1021,7 hPa 0,0 l/m 2,9 km/h (1 Bft) O-NO 67 0 min 3,2 C 10,3 C 3,4 km/h (1 Bft)
04.05.2018 04:50 10,4 C 13,3 C 10,4 C 10,4 C 10,3 C 0,0 C 61 % 64 % 1021,7 hPa 0,0 l/m 2,7 km/h (1 Bft) O-NO 67 0 min 3,2 C 10,3 C 2,4 km/h (1 Bft)
04.05.2018 04:55 10,3 C 13,3 C 10,5 C 10,3 C 10,3 C 0,0 C 60 % 63 % 1022,0 hPa 0,0 l/m 2,7 km/h (1 Bft) O-NO 67 0 min 2,9 C 10,3 C 4,2 km/h (1 Bft)
04.05.2018 05:00 10,3 C 13,3 C 10,5 C 10,3 C 10,3 C 0,0 C 60 % 63 % 1022,0 hPa 0,0 l/m 2,6 km/h (1 Bft) O-NO 67 0 min 2,9 C 10,3 C 3,1 km/h (1 Bft)
04.05.2018 05:05 10,3 C 13,3 C 10,4 C 10,3 C 10,3 C 0,0 C 59 % 62 % 1022,0 hPa 0,0 l/m 2,4 km/h (1 Bft) O-NO 67 0 min 2,6 C 10,3 C 0,0 km/h (0 Bft)
04.05.2018 05:10 10,3 C 13,2 C 10,4 C 10,3 C 10,3 C 0,0 C 59 % 62 % 1022,0 hPa 0,0 l/m 2,3 km/h (1 Bft) N-NO 22 0 min 2,6 C 10,3 C 3,1 km/h (1 Bft)
04.05.2018 05:15 10,3 C 13,2 C 10,4 C 10,3 C 10,2 C 0,0 C 59 % 63 % 1021,8 hPa 0,0 l/m 1,9 km/h (1 Bft) NO 45 0 min 2,6 C 10,2 C 2,9 km/h (1 Bft)
04.05.2018 05:20 10,3 C 13,2 C 10,3 C 10,3 C 10,2 C 0,0 C 59 % 62 % 1021,8 hPa 0,0 l/m 2,1 km/h (1 Bft) O-NO 67 0 min 2,6 C 10,2 C 0,0 km/h (0 Bft)
04.05.2018 05:25 10,3 C 13,2 C 10,3 C 10,2 C 10,1 C 0,0 C 59 % 62 % 1021,8 hPa 0,0 l/m 1,6 km/h (1 Bft) NO 45 0 min 2,6 C 10,1 C 2,3 km/h (1 Bft)
04.05.2018 05:30 10,3 C 13,2 C 10,3 C 10,2 C 10,1 C 0,0 C 58 % 62 % 1021,8 hPa 0,0 l/m 1,3 km/h (1 Bft) NO 45 0 min 2,4 C 10,1 C 2,9 km/h (1 Bft)
04.05.2018 05:35 10,1 C 13,2 C 10,3 C 10,1 C 10,1 C 0,0 C 58 % 61 % 1021,8 hPa 0,0 l/m 2,6 km/h (1 Bft) O-NO 67 0 min 2,2 C 10,1 C 3,9 km/h (1 Bft)
04.05.2018 05:40 10,1 C 13,2 C 10,3 C 10,1 C 10,1 C 0,0 C 58 % 61 % 1021,8 hPa 0,0 l/m 3,4 km/h (1 Bft) NO 45 0 min 2,2 C 10,1 C 4,8 km/h (1 Bft)
04.05.2018 05:45 10,1 C 13,2 C 10,3 C 10,1 C 10,1 C 0,0 C 58 % 61 % 1021,8 hPa 0,0 l/m 4,0 km/h (1 Bft) NO 45 0 min 2,2 C 10,1 C 4,5 km/h (1 Bft)
04.05.2018 05:50 10,1 C 13,2 C 10,2 C 10,1 C 10,1 C 0,0 C 58 % 62 % 1021,8 hPa 0,0 l/m 4,0 km/h (1 Bft) N-NO 22 0 min 2,2 C 10,1 C 3,4 km/h (1 Bft)
04.05.2018 05:55 10,0 C 13,2 C 10,1 C 10,1 C 10,1 C 0,1 C 58 % 62 % 1022,1 hPa 0,0 l/m 3,7 km/h (1 Bft) NO 45 0 min 2,1 C 10,1 C 4,2 km/h (1 Bft)
04.05.2018 06:00 10,0 C 13,1 C 10,1 C 10,1 C 10,1 C 0,1 C 58 % 62 % 1022,1 hPa 0,0 l/m 3,9 km/h (1 Bft) O-NO 67 0 min 2,1 C 10,1 C 3,7 km/h (1 Bft)
04.05.2018 06:05 10,1 C 13,1 C 10,1 C 10,1 C 10,0 C 0,0 C 59 % 63 % 1022,1 hPa 0,0 l/m 3,7 km/h (1 Bft) O-NO 67 0 min 2,5 C 10,0 C 3,5 km/h (1 Bft)
04.05.2018 06:10 10,0 C 13,1 C 10,1 C 10,0 C 10,0 C 0,0 C 60 % 64 % 1022,1 hPa 0,0 l/m 3,2 km/h (1 Bft) O-NO 67 0 min 2,6 C 10,0 C 2,6 km/h (1 Bft)
04.05.2018 06:15 10,0 C 13,1 C 10,1 C 10,0 C 10,0 C 0,0 C 59 % 63 % 1022,1 hPa 0,0 l/m 3,4 km/h (1 Bft) NO 45 0 min 2,4 C 10,0 C 3,5 km/h (1 Bft)
04.05.2018 06:20 9,9 C 13,1 C 10,0 C 10,0 C 10,0 C 0,1 C 60 % 63 % 1022,1 hPa 0,0 l/m 3,4 km/h (1 Bft) N-NO 22 0 min 2,5 C 10,0 C 2,3 km/h (1 Bft)
04.05.2018 06:25 9,9 C 13,1 C 10,0 C 10,0 C 10,0 C 0,1 C 60 % 65 % 1022,1 hPa 0,0 l/m 2,1 km/h (1 Bft) NO 45 0 min 2,5 C 10,0 C 0,0 km/h (0 Bft)
04.05.2018 06:30 10,0 C 13,1 C 10,0 C 10,0 C 10,0 C 0,0 C 61 % 65 % 1022,1 hPa 0,0 l/m 1,3 km/h (1 Bft) O 90 0 min 2,8 C 10,0 C 2,9 km/h (1 Bft)
04.05.2018 06:35 9,9 C 13,1 C 10,1 C 10,0 C 10,0 C 0,1 C 61 % 66 % 1022,5 hPa 0,0 l/m 1,4 km/h (1 Bft) NO 45 0 min 2,7 C 10,0 C 2,4 km/h (1 Bft)
04.05.2018 06:40 9,9 C 13,1 C 10,0 C 10,0 C 10,0 C 0,1 C 61 % 66 % 1022,5 hPa 0,0 l/m 1,9 km/h (1 Bft) NO 45 0 min 2,7 C 10,0 C 2,4 km/h (1 Bft)
04.05.2018 06:45 9,8 C 13,1 C 10,0 C 10,0 C 10,0 C 0,2 C 61 % 67 % 1022,5 hPa 0,0 l/m 1,9 km/h (1 Bft) O-NO 67 0 min 2,6 C 10,0 C 3,7 km/h (1 Bft)
04.05.2018 06:50 9,8 C 13,1 C 10,0 C 10,0 C 10,0 C 0,2 C 62 % 66 % 1022,5 hPa 0,0 l/m 1,9 km/h (1 Bft) O-NO 67 0 min 2,9 C 10,0 C 0,0 km/h (0 Bft)
04.05.2018 06:55 9,9 C 13,1 C 10,1 C 10,0 C 10,0 C 0,1 C 62 % 66 % 1022,4 hPa 0,0 l/m 1,6 km/h (1 Bft) O-NO 67 0 min 3,0 C 10,0 C 2,7 km/h (1 Bft)
04.05.2018 07:00 9,9 C 13,1 C 10,0 C 10,0 C 10,0 C 0,1 C 62 % 67 % 1022,4 hPa 0,0 l/m 1,4 km/h (1 Bft) O-NO 67 0 min 3,0 C 10,0 C 3,4 km/h (1 Bft)
04.05.2018 07:05 9,9 C 13,0 C 10,0 C 10,1 C 10,1 C 0,2 C 62 % 66 % 1022,4 hPa 0,0 l/m 1,8 km/h (1 Bft) O 90 0 min 3,0 C 10,1 C 1,6 km/h (1 Bft)
04.05.2018 07:10 9,8 C 13,0 C 10,1 C 10,1 C 10,1 C 0,3 C 62 % 67 % 1022,4 hPa 0,0 l/m 1,3 km/h (1 Bft) NO 45 0 min 2,9 C 10,1 C 2,3 km/h (1 Bft)
04.05.2018 07:15 9,9 C 13,0 C 10,1 C 10,1 C 10,1 C 0,2 C 63 % 66 % 1022,6 hPa 0,0 l/m 0,6 km/h (0 Bft) N-NO 22 0 min 3,2 C 10,1 C 2,4 km/h (1 Bft)
04.05.2018 07:20 9,9 C 13,0 C 10,1 C 10,2 C 10,2 C 0,3 C 63 % 66 % 1022,6 hPa 0,0 l/m 1,0 km/h (0 Bft) NO 45 0 min 3,2 C 10,2 C 0,0 km/h (0 Bft)
04.05.2018 07:25 9,9 C 13,0 C 10,3 C 10,3 C 10,3 C 0,4 C 63 % 67 % 1022,6 hPa 0,0 l/m 1,0 km/h (0 Bft) O 90 0 min 3,2 C 10,3 C 3,1 km/h (1 Bft)
04.05.2018 07:30 9,9 C 13,0 C 10,1 C 10,3 C 10,3 C 0,4 C 63 % 67 % 1022,6 hPa 0,0 l/m 1,0 km/h (0 Bft) NO 45 0 min 3,2 C 10,3 C 0,0 km/h (0 Bft)
04.05.2018 07:35 9,9 C 13,0 C 10,3 C 10,3 C 10,3 C 0,4 C 64 % 67 % 1022,8 hPa 0,0 l/m 1,4 km/h (1 Bft) O-NO 67 0 min 3,4 C 10,3 C 2,9 km/h (1 Bft)
04.05.2018 07:40 9,9 C 13,0 C 10,2 C 10,3 C 10,3 C 0,4 C 64 % 68 % 1022,8 hPa 0,0 l/m 1,4 km/h (1 Bft) O-NO 67 0 min 3,4 C 10,3 C 0,0 km/h (0 Bft)
04.05.2018 07:45 9,9 C 13,0 C 10,3 C 10,4 C 10,4 C 0,5 C 64 % 67 % 1022,8 hPa 0,0 l/m 1,0 km/h (0 Bft) O 90 0 min 3,4 C 10,4 C 2,1 km/h (1 Bft)
04.05.2018 07:50 9,9 C 13,0 C 10,3 C 10,5 C 10,5 C 0,6 C 64 % 68 % 1022,8 hPa 0,0 l/m 0,5 km/h (0 Bft) O-NO 67 0 min 3,4 C 10,5 C 1,6 km/h (1 Bft)
04.05.2018 07:55 9,9 C 13,0 C 10,3 C 10,5 C 10,5 C 0,6 C 65 % 69 % 1023,0 hPa 0,0 l/m 1,1 km/h (1 Bft) O-NO 67 0 min 3,6 C 10,5 C 4,3 km/h (1 Bft)
04.05.2018 08:00 9,9 C 13,0 C 10,3 C 10,5 C 10,5 C 0,6 C 65 % 69 % 1023,0 hPa 0,0 l/m 1,9 km/h (1 Bft) O-NO 67 0 min 3,6 C 10,5 C 3,2 km/h (1 Bft)
04.05.2018 08:05 9,9 C 13,0 C 10,3 C 10,5 C 10,5 C 0,6 C 65 % 69 % 1023,0 hPa 0,0 l/m 3,2 km/h (1 Bft) O-NO 67 0 min 3,6 C 10,5 C 3,5 km/h (1 Bft)
04.05.2018 08:10 9,9 C 13,0 C 10,2 C 10,5 C 10,5 C 0,6 C 65 % 69 % 1023,0 hPa 0,0 l/m 3,4 km/h (1 Bft) O-NO 67 0 min 3,6 C 10,5 C 6,0 km/h (2 Bft)
04.05.2018 08:15 9,9 C 13,0 C 10,3 C 10,5 C 10,5 C 0,6 C 65 % 69 % 1023,1 hPa 0,0 l/m 4,2 km/h (1 Bft) SO 135 0 min 3,6 C 10,5 C 6,8 km/h (2 Bft)
04.05.2018 08:20 9,9 C 13,0 C 10,2 C 10,6 C 10,6 C 0,7 C 65 % 69 % 1023,1 hPa 0,0 l/m 4,5 km/h (1 Bft) NO 45 0 min 3,6 C 10,6 C 2,9 km/h (1 Bft)
04.05.2018 08:25 10,0 C 12,9 C 10,5 C 10,7 C 10,7 C 0,7 C 66 % 70 % 1023,1 hPa 0,0 l/m 3,2 km/h (1 Bft) NO 45 0 min 3,9 C 10,7 C 0,0 km/h (0 Bft)
04.05.2018 08:30 10,0 C 12,9 C 10,5 C 10,9 C 10,9 C 0,9 C 66 % 69 % 1023,1 hPa 0,0 l/m 2,1 km/h (1 Bft) O-NO 67 0 min 3,9 C 10,9 C 4,3 km/h (1 Bft)
04.05.2018 08:35 10,1 C 12,9 C 10,7 C 11,2 C 11,2 C 1,1 C 67 % 70 % 1023,1 hPa 0,0 l/m 1,6 km/h (1 Bft) O-NO 67 0 min 4,3 C 11,2 C 1,8 km/h (1 Bft)
04.05.2018 08:40 10,2 C 12,9 C 10,8 C 11,5 C 11,5 C 1,3 C 67 % 71 % 1023,1 hPa 0,0 l/m 1,6 km/h (1 Bft) O-NO 67 0 min 4,4 C 11,5 C 2,7 km/h (1 Bft)
04.05.2018 08:45 10,4 C 12,9 C 11,0 C 11,7 C 11,7 C 1,3 C 67 % 70 % 1023,1 hPa 0,0 l/m 1,3 km/h (1 Bft) O-NO 67 0 min 4,5 C 11,7 C 1,9 km/h (1 Bft)
04.05.2018 08:50 10,4 C 12,9 C 11,0 C 11,9 C 11,9 C 1,5 C 68 % 70 % 1023,1 hPa 0,0 l/m 1,8 km/h (1 Bft) N-NW 337 0 min 4,8 C 11,9 C 3,1 km/h (1 Bft)
04.05.2018 08:55 10,5 C 12,9 C 11,1 C 12,1 C 12,1 C 1,6 C 67 % 70 % 1023,4 hPa 0,0 l/m 2,9 km/h (1 Bft) O-NO 67 0 min 4,6 C 12,1 C 3,9 km/h (1 Bft)
04.05.2018 09:00 10,6 C 12,9 C 11,2 C 12,1 C 12,1 C 1,5 C 67 % 70 % 1023,4 hPa 0,0 l/m 3,7 km/h (1 Bft) O-NO 67 0 min 4,7 C 12,1 C 3,9 km/h (1 Bft)
04.05.2018 09:05 10,7 C 12,9 C 11,3 C 12,2 C 12,2 C 1,5 C 67 % 69 % 1023,4 hPa 0,0 l/m 3,7 km/h (1 Bft) O-NO 67 0 min 4,8 C 12,2 C 8,4 km/h (2 Bft)
04.05.2018 09:10 10,6 C 12,9 C 11,3 C 11,9 C 11,9 C 1,3 C 65 % 67 % 1023,4 hPa 0,0 l/m 5,6 km/h (1 Bft) O-NO 67 0 min 4,3 C 11,9 C 5,0 km/h (1 Bft)
04.05.2018 09:15 10,7 C 12,9 C 11,4 C 11,8 C 11,8 C 1,1 C 66 % 68 % 1023,3 hPa 0,0 l/m 7,2 km/h (2 Bft) O-NO 67 0 min 4,6 C 11,8 C 11,3 km/h (2 Bft)
04.05.2018 09:20 10,7 C 12,9 C 11,6 C 12,2 C 12,2 C 1,5 C 66 % 68 % 1023,3 hPa 0,0 l/m 6,0 km/h (2 Bft) O-NO 67 0 min 4,6 C 12,2 C 2,3 km/h (1 Bft)
04.05.2018 09:25 10,9 C 12,9 C 11,9 C 12,8 C 12,8 C 1,9 C 67 % 68 % 1023,3 hPa 0,0 l/m 4,5 km/h (1 Bft) NO 45 0 min 5,0 C 12,8 C 1,6 km/h (1 Bft)
04.05.2018 09:30 11,1 C 12,9 C 11,9 C 13,1 C 13,1 C 2,0 C 67 % 68 % 1023,3 hPa 0,0 l/m 3,2 km/h (1 Bft) O-NO 67 0 min 5,2 C 13,1 C 5,1 km/h (1 Bft)
04.05.2018 09:35 11,0 C 12,9 C 11,9 C 13,0 C 13,0 C 2,0 C 64 % 66 % 1023,6 hPa 0,0 l/m 5,0 km/h (1 Bft) O-NO 67 0 min 4,5 C 13,0 C 10,5 km/h (2 Bft)
04.05.2018 09:40 10,9 C 12,9 C 11,8 C 12,5 C 12,5 C 1,6 C 64 % 66 % 1023,6 hPa 0,0 l/m 6,6 km/h (2 Bft) NO 45 0 min 4,4 C 12,5 C 7,1 km/h (2 Bft)
04.05.2018 09:45 11,0 C 12,9 C 11,9 C 12,6 C 12,6 C 1,6 C 64 % 66 % 1023,6 hPa 0,0 l/m 6,3 km/h (2 Bft) O-NO 67 0 min 4,5 C 12,6 C 6,8 km/h (2 Bft)
04.05.2018 09:50 11,1 C 12,9 C 11,9 C 12,8 C 12,8 C 1,7 C 64 % 66 % 1023,6 hPa 0,0 l/m 5,6 km/h (1 Bft) O-NO 67 0 min 4,6 C 12,8 C 5,6 km/h (1 Bft)
04.05.2018 09:55 11,1 C 12,9 C 12,0 C 13,1 C 13,1 C 2,0 C 64 % 67 % 1023,4 hPa 0,0 l/m 4,7 km/h (1 Bft) NO 45 0 min 4,6 C 13,1 C 3,2 km/h (1 Bft)
04.05.2018 10:00 11,3 C 12,9 C 12,2 C 13,3 C 13,3 C 2,0 C 65 % 66 % 1023,4 hPa 0,0 l/m 4,5 km/h (1 Bft) O-NO 67 0 min 5,0 C 13,3 C 7,9 km/h (2 Bft)
04.05.2018 10:05 11,4 C 12,9 C 12,4 C 13,6 C 13,6 C 2,2 C 64 % 66 % 1023,4 hPa 0,0 l/m 4,0 km/h (1 Bft) O-NO 67 0 min 4,8 C 13,6 C 2,9 km/h (1 Bft)
04.05.2018 10:10 11,5 C 12,9 C 12,7 C 14,1 C 14,1 C 2,6 C 64 % 64 % 1023,4 hPa 0,0 l/m 4,0 km/h (1 Bft) W-NW 292 0 min 4,9 C 14,1 C 2,3 km/h (1 Bft)
04.05.2018 10:15 11,8 C 12,9 C 12,9 C 14,7 C 14,7 C 2,9 C 62 % 62 % 1023,4 hPa 0,0 l/m 3,4 km/h (1 Bft) N-NW 337 0 min 4,8 C 14,7 C 3,5 km/h (1 Bft)
04.05.2018 10:20 11,8 C 12,9 C 13,0 C 15,0 C 15,0 C 3,2 C 61 % 61 % 1023,4 hPa 0,0 l/m 3,4 km/h (1 Bft) O-NO 67 0 min 4,5 C 15,0 C 4,5 km/h (1 Bft)
04.05.2018 10:25 12,0 C 12,8 C 13,0 C 15,1 C 15,1 C 3,1 C 61 % 61 % 1023,4 hPa 0,0 l/m 3,9 km/h (1 Bft) O-NO 67 0 min 4,7 C 15,1 C 4,2 km/h (1 Bft)
04.05.2018 10:30 12,0 C 12,8 C 13,2 C 15,2 C 15,2 C 3,2 C 61 % 62 % 1023,4 hPa 0,0 l/m 3,7 km/h (1 Bft) O-NO 67 0 min 4,7 C 15,2 C 6,3 km/h (2 Bft)
04.05.2018 10:35 12,1 C 12,8 C 13,3 C 15,4 C 15,4 C 3,3 C 61 % 61 % 1023,5 hPa 0,0 l/m 3,5 km/h (1 Bft) O-NO 67 5 min 4,8 C 15,4 C 5,0 km/h (1 Bft)
04.05.2018 10:40 12,3 C 12,8 C 13,3 C 15,4 C 15,4 C 3,1 C 60 % 61 % 1023,5 hPa 0,0 l/m 3,7 km/h (1 Bft) NO 45 0 min 4,8 C 15,4 C 3,1 km/h (1 Bft)
04.05.2018 10:45 12,3 C 12,8 C 13,4 C 15,5 C 15,5 C 3,2 C 60 % 60 % 1023,5 hPa 0,0 l/m 3,4 km/h (1 Bft) O-NO 67 0 min 4,8 C 15,5 C 3,2 km/h (1 Bft)
04.05.2018 10:50 12,3 C 12,8 C 13,3 C 15,5 C 15,5 C 3,2 C 58 % 59 % 1023,5 hPa 0,0 l/m 3,9 km/h (1 Bft) O-NO 67 0 min 4,3 C 15,5 C 4,8 km/h (1 Bft)
04.05.2018 10:55 12,2 C 12,8 C 13,5 C 15,4 C 15,4 C 3,2 C 57 % 57 % 1023,6 hPa 0,0 l/m 4,8 km/h (1 Bft) O-NO 67 0 min 3,9 C 15,4 C 10,8 km/h (2 Bft)
04.05.2018 11:00 12,1 C 12,8 C 13,3 C 15,0 C 15,0 C 2,9 C 57 % 58 % 1023,6 hPa 0,0 l/m 5,6 km/h (1 Bft) O-SO 112 0 min 3,8 C 15,0 C 9,0 km/h (2 Bft)
04.05.2018 11:05 12,3 C 12,8 C 13,5 C 15,1 C 15,1 C 2,8 C 59 % 58 % 1023,6 hPa 0,0 l/m 5,8 km/h (2 Bft) O-NO 67 0 min 4,5 C 15,1 C 6,1 km/h (2 Bft)
04.05.2018 11:10 12,3 C 12,8 C 13,6 C 15,2 C 15,2 C 2,9 C 58 % 59 % 1023,6 hPa 0,0 l/m 5,0 km/h (1 Bft) NO 45 0 min 4,3 C 15,2 C 6,4 km/h (2 Bft)
04.05.2018 11:15 12,2 C 12,8 C 13,5 C 15,1 C 15,1 C 2,9 C 58 % 59 % 1023,7 hPa 0,0 l/m 5,5 km/h (1 Bft) O-NO 67 0 min 4,2 C 15,1 C 6,4 km/h (2 Bft)
04.05.2018 11:20 12,4 C 12,8 C 13,9 C 15,5 C 15,5 C 3,1 C 58 % 58 % 1023,7 hPa 0,0 l/m 5,0 km/h (1 Bft) N-NO 22 0 min 4,4 C 15,5 C 6,4 km/h (2 Bft)
04.05.2018 11:25 12,7 C 12,8 C 14,0 C 16,1 C 16,1 C 3,4 C 57 % 57 % 1023,7 hPa 0,0 l/m 3,4 km/h (1 Bft) O-NO 67 5 min 4,4 C 16,1 C 2,3 km/h (1 Bft)
04.05.2018 11:30 12,9 C 12,8 C 14,0 C 16,4 C 16,4 C 3,5 C 56 % 56 % 1023,7 hPa 0,0 l/m 3,7 km/h (1 Bft) O-NO 67 5 min 4,3 C 16,4 C 5,6 km/h (1 Bft)
04.05.2018 11:35 12,7 C 12,8 C 14,0 C 16,0 C 16,0 C 3,3 C 56 % 56 % 1024,1 hPa 0,0 l/m 5,5 km/h (1 Bft) NO 45 5 min 4,2 C 16,0 C 8,0 km/h (2 Bft)
04.05.2018 11:40 12,7 C 12,8 C 14,0 C 15,9 C 15,9 C 3,2 C 55 % 56 % 1024,1 hPa 0,0 l/m 6,3 km/h (2 Bft) O-NO 67 0 min 3,9 C 15,9 C 13,2 km/h (3 Bft)
04.05.2018 11:45 12,7 C 12,8 C 14,0 C 15,7 C 15,7 C 3,0 C 54 % 54 % 1024,1 hPa 0,0 l/m 6,6 km/h (2 Bft) O-SO 112 0 min 3,6 C 15,7 C 8,5 km/h (2 Bft)
04.05.2018 11:50 12,7 C 12,8 C 14,3 C 16,0 C 16,0 C 3,3 C 55 % 54 % 1024,1 hPa 0,0 l/m 6,3 km/h (2 Bft) O-NO 67 5 min 3,9 C 16,0 C 3,7 km/h (1 Bft)
04.05.2018 11:55 13,1 C 12,8 C 14,6 C 16,9 C 16,9 C 3,8 C 57 % 57 % 1023,8 hPa 0,0 l/m 4,0 km/h (1 Bft) NO 45 5 min 4,8 C 16,9 C 4,3 km/h (1 Bft)
04.05.2018 12:00 13,2 C 12,8 C 14,7 C 17,3 C 17,3 C 4,1 C 57 % 57 % 1023,8 hPa 0,0 l/m 3,7 km/h (1 Bft) O-SO 112 5 min 4,9 C 17,3 C 3,4 km/h (1 Bft)
04.05.2018 12:05 13,6 C 12,8 C 15,1 C 18,2 C 18,2 C 4,6 C 57 % 56 % 1023,8 hPa 0,0 l/m 3,5 km/h (1 Bft) O-NO 67 5 min 5,2 C 18,2 C 4,8 km/h (1 Bft)
04.05.2018 12:10 13,6 C 12,8 C 15,3 C 18,3 C 18,3 C 4,7 C 55 % 52 % 1023,8 hPa 0,0 l/m 3,4 km/h (1 Bft) O-NO 67 5 min 4,7 C 18,3 C 2,6 km/h (1 Bft)
04.05.2018 12:15 13,6 C 12,8 C 15,3 C 18,2 C 18,2 C 4,6 C 52 % 53 % 1023,8 hPa 0,0 l/m 4,7 km/h (1 Bft) NO 45 5 min 3,9 C 18,2 C 5,5 km/h (1 Bft)
04.05.2018 12:20 13,8 C 12,8 C 15,5 C 18,5 C 18,5 C 4,7 C 54 % 52 % 1023,8 hPa 0,0 l/m 4,7 km/h (1 Bft) NO 45 5 min 4,7 C 18,5 C 5,6 km/h (1 Bft)
04.05.2018 12:25 14,1 C 12,8 C 15,7 C 18,8 C 18,8 C 4,7 C 52 % 50 % 1023,8 hPa 0,0 l/m 3,5 km/h (1 Bft) O-NO 67 5 min 4,4 C 18,8 C 5,0 km/h (1 Bft)
04.05.2018 12:30 14,1 C 12,8 C 15,6 C 19,1 C 19,1 C 5,0 C 51 % 50 % 1023,8 hPa 0,0 l/m 3,7 km/h (1 Bft) O-NO 67 5 min 4,1 C 19,1 C 6,6 km/h (2 Bft)
04.05.2018 12:35 14,3 C 12,8 C 15,9 C 19,4 C 19,4 C 5,1 C 50 % 49 % 1023,6 hPa 0,0 l/m 4,2 km/h (1 Bft) NO 45 5 min 4,0 C 19,4 C 4,5 km/h (1 Bft)
04.05.2018 12:40 14,3 C 12,8 C 15,8 C 19,1 C 19,1 C 4,8 C 50 % 50 % 1023,6 hPa 0,0 l/m 5,0 km/h (1 Bft) NO 45 5 min 4,0 C 19,1 C 4,0 km/h (1 Bft)
04.05.2018 12:45 14,3 C 12,8 C 15,7 C 19,1 C 19,1 C 4,8 C 51 % 49 % 1023,6 hPa 0,0 l/m 4,5 km/h (1 Bft) N-NO 22 5 min 4,3 C 19,1 C 2,7 km/h (1 Bft)
04.05.2018 12:50 14,4 C 12,8 C 16,0 C 19,4 C 19,4 C 5,0 C 52 % 52 % 1023,6 hPa 0,0 l/m 3,5 km/h (1 Bft) O-NO 67 5 min 4,7 C 19,4 C 4,7 km/h (1 Bft)
04.05.2018 12:55 14,5 C 12,8 C 16,0 C 19,5 C 19,5 C 5,0 C 52 % 50 % 1023,6 hPa 0,0 l/m 3,4 km/h (1 Bft) O-NO 67 5 min 4,8 C 19,5 C 5,1 km/h (1 Bft)
04.05.2018 13:00 14,5 C 12,8 C 16,0 C 19,7 C 19,7 C 5,2 C 51 % 50 % 1023,6 hPa 0,0 l/m 4,2 km/h (1 Bft) O-NO 67 5 min 4,5 C 19,7 C 6,0 km/h (2 Bft)
04.05.2018 13:05 14,9 C 12,8 C 16,3 C 20,1 C 20,1 C 5,2 C 52 % 52 % 1023,6 hPa 0,0 l/m 3,5 km/h (1 Bft) O 90 5 min 5,1 C 20,1 C 3,4 km/h (1 Bft)
04.05.2018 13:10 14,9 C 12,8 C 16,4 C 20,4 C 20,4 C 5,5 C 52 % 52 % 1023,6 hPa 0,0 l/m 3,5 km/h (1 Bft) NW 315 5 min 5,1 C 20,4 C 13,0 km/h (3 Bft)
04.05.2018 13:15 14,9 C 12,8 C 16,5 C 20,4 C 20,4 C 5,5 C 52 % 52 % 1023,6 hPa 0,0 l/m 3,7 km/h (1 Bft) SW 225 5 min 5,1 C 20,4 C 8,9 km/h (2 Bft)
04.05.2018 13:20 15,1 C 12,8 C 16,6 C 20,6 C 20,6 C 5,5 C 52 % 51 % 1023,6 hPa 0,0 l/m 3,4 km/h (1 Bft) O-SO 112 5 min 5,3 C 20,6 C 2,3 km/h (1 Bft)
04.05.2018 13:25 15,2 C 12,9 C 16,7 C 20,7 C 20,7 C 5,5 C 52 % 51 % 1023,6 hPa 0,0 l/m 3,4 km/h (1 Bft) NW 315 5 min 5,4 C 20,7 C 4,3 km/h (1 Bft)
04.05.2018 13:30 15,3 C 12,9 C 16,7 C 20,9 C 20,9 C 5,6 C 52 % 51 % 1023,6 hPa 0,0 l/m 3,5 km/h (1 Bft) O-NO 67 5 min 5,5 C 20,9 C 6,8 km/h (2 Bft)
04.05.2018 13:35 15,4 C 12,9 C 17,6 C 21,3 C 21,3 C 5,9 C 51 % 50 % 1023,6 hPa 0,0 l/m 3,1 km/h (1 Bft) NO 45 5 min 5,3 C 21,3 C 4,8 km/h (1 Bft)
04.05.2018 13:40 15,7 C 12,9 C 18,4 C 21,7 C 21,7 C 6,0 C 51 % 50 % 1023,6 hPa 0,0 l/m 3,1 km/h (1 Bft) O-SO 112 5 min 5,6 C 21,7 C 4,8 km/h (1 Bft)
04.05.2018 13:45 15,6 C 12,9 C 18,2 C 21,6 C 21,6 C 6,0 C 50 % 47 % 1023,6 hPa 0,0 l/m 3,7 km/h (1 Bft) O-SO 112 5 min 5,2 C 21,6 C 6,0 km/h (2 Bft)
04.05.2018 13:50 15,6 C 12,9 C 18,1 C 21,4 C 21,4 C 5,8 C 50 % 48 % 1023,6 hPa 0,0 l/m 3,9 km/h (1 Bft) O-NO 67 5 min 5,2 C 21,4 C 5,1 km/h (1 Bft)
04.05.2018 13:55 15,6 C 12,9 C 18,5 C 21,0 C 21,0 C 5,4 C 52 % 51 % 1023,4 hPa 0,0 l/m 4,2 km/h (1 Bft) O-NO 67 5 min 5,8 C 21,0 C 3,9 km/h (1 Bft)
04.05.2018 14:00 15,8 C 12,8 C 18,6 C 21,4 C 21,4 C 5,6 C 52 % 50 % 1023,4 hPa 0,0 l/m 4,0 km/h (1 Bft) O 90 5 min 6,0 C 21,4 C 4,0 km/h (1 Bft)
04.05.2018 14:05 15,9 C 12,8 C 18,7 C 21,7 C 21,7 C 5,8 C 51 % 48 % 1023,4 hPa 0,0 l/m 3,1 km/h (1 Bft) O-NO 67 5 min 5,8 C 21,7 C 8,7 km/h (2 Bft)
04.05.2018 14:10 15,7 C 12,8 C 18,7 C 21,4 C 21,4 C 5,7 C 52 % 50 % 1023,4 hPa 0,0 l/m 4,2 km/h (1 Bft) O-SO 112 5 min 5,9 C 21,4 C 6,1 km/h (2 Bft)
04.05.2018 14:15 15,7 C 12,8 C 18,1 C 21,2 C 21,2 C 5,5 C 52 % 49 % 1023,6 hPa 0,0 l/m 4,7 km/h (1 Bft) O-SO 112 5 min 5,9 C 21,2 C 2,7 km/h (1 Bft)
04.05.2018 14:20 15,6 C 12,8 C 17,6 C 21,0 C 21,0 C 5,4 C 52 % 50 % 1023,6 hPa 0,0 l/m 4,3 km/h (1 Bft) O-NO 67 5 min 5,8 C 21,0 C 2,9 km/h (1 Bft)
04.05.2018 14:25 15,8 C 12,8 C 17,9 C 21,5 C 21,5 C 5,7 C 53 % 50 % 1023,6 hPa 0,0 l/m 3,4 km/h (1 Bft) O 90 5 min 6,2 C 21,5 C 2,6 km/h (1 Bft)
04.05.2018 14:30 15,7 C 12,8 C 17,7 C 21,4 C 21,4 C 5,7 C 52 % 51 % 1023,6 hPa 0,0 l/m 4,0 km/h (1 Bft) O-SO 112 5 min 5,9 C 21,4 C 8,7 km/h (2 Bft)
04.05.2018 14:35 15,9 C 12,9 C 17,6 C 21,5 C 21,5 C 5,6 C 53 % 53 % 1023,4 hPa 0,0 l/m 4,2 km/h (1 Bft) O-NO 67 5 min 6,3 C 21,5 C 3,7 km/h (1 Bft)
04.05.2018 14:40 16,3 C 12,9 C 17,5 C 21,9 C 21,9 C 5,6 C 53 % 51 % 1023,4 hPa 0,0 l/m 3,2 km/h (1 Bft) NO 45 5 min 6,7 C 21,9 C 2,6 km/h (1 Bft)
04.05.2018 14:45 16,4 C 12,9 C 17,6 C 22,5 C 22,5 C 6,1 C 52 % 52 % 1023,4 hPa 0,0 l/m 3,1 km/h (1 Bft) O-NO 67 5 min 6,5 C 22,5 C 4,2 km/h (1 Bft)
04.05.2018 14:50 16,3 C 12,9 C 17,6 C 22,4 C 22,4 C 6,1 C 51 % 52 % 1023,4 hPa 0,0 l/m 3,1 km/h (1 Bft) NO 45 5 min 6,1 C 22,4 C 6,4 km/h (2 Bft)
04.05.2018 14:55 16,2 C 12,9 C 17,5 C 22,1 C 22,1 C 5,9 C 51 % 52 % 1023,5 hPa 0,0 l/m 4,5 km/h (1 Bft) W 270 5 min 6,1 C 22,1 C 9,8 km/h (2 Bft)
04.05.2018 15:00 16,3 C 12,9 C 17,4 C 22,4 C 22,4 C 6,1 C 51 % 52 % 1023,5 hPa 0,0 l/m 3,9 km/h (1 Bft) O-NO 67 5 min 6,1 C 22,4 C 1,9 km/h (1 Bft)
04.05.2018 15:05 16,5 C 12,9 C 17,6 C 22,6 C 22,6 C 6,1 C 51 % 54 % 1023,5 hPa 0,0 l/m 3,2 km/h (1 Bft) N-NO 22 5 min 6,3 C 22,6 C 2,3 km/h (1 Bft)
04.05.2018 15:10 16,7 C 13,0 C 17,6 C 22,9 C 22,9 C 6,2 C 51 % 53 % 1023,5 hPa 0,0 l/m 2,9 km/h (1 Bft) S-SO 157 5 min 6,5 C 22,9 C 3,7 km/h (1 Bft)
04.05.2018 15:15 16,3 C 13,0 C 17,3 C 22,3 C 22,3 C 6,0 C 50 % 52 % 1023,6 hPa 0,0 l/m 4,3 km/h (1 Bft) O-NO 67 5 min 5,9 C 22,3 C 4,3 km/h (1 Bft)
04.05.2018 15:20 16,2 C 13,0 C 17,2 C 21,9 C 21,9 C 5,7 C 51 % 53 % 1023,6 hPa 0,0 l/m 4,8 km/h (1 Bft) O-NO 67 5 min 6,1 C 21,9 C 4,0 km/h (1 Bft)
04.05.2018 15:25 16,4 C 13,0 C 17,3 C 22,2 C 22,2 C 5,8 C 50 % 52 % 1023,6 hPa 0,0 l/m 4,0 km/h (1 Bft) NW 315 5 min 6,0 C 22,2 C 8,9 km/h (2 Bft)
04.05.2018 15:30 16,6 C 13,0 C 17,2 C 22,4 C 22,4 C 5,8 C 50 % 52 % 1023,6 hPa 0,0 l/m 3,9 km/h (1 Bft) N 360 5 min 6,1 C 22,4 C 5,1 km/h (1 Bft)
04.05.2018 15:35 16,7 C 13,0 C 17,2 C 22,4 C 22,4 C 5,7 C 49 % 51 % 1023,4 hPa 0,0 l/m 4,0 km/h (1 Bft) O-SO 112 5 min 5,9 C 22,4 C 2,9 km/h (1 Bft)
04.05.2018 15:40 16,7 C 13,0 C 17,1 C 22,6 C 22,6 C 5,9 C 50 % 52 % 1023,4 hPa 0,0 l/m 2,9 km/h (1 Bft) NO 45 5 min 6,2 C 22,6 C 2,7 km/h (1 Bft)
04.05.2018 15:45 16,8 C 13,0 C 17,3 C 23,1 C 23,1 C 6,3 C 50 % 52 % 1023,4 hPa 0,0 l/m 2,9 km/h (1 Bft) NW 315 5 min 6,3 C 23,1 C 5,5 km/h (1 Bft)
04.05.2018 15:50 16,8 C 13,0 C 17,3 C 22,9 C 22,9 C 6,1 C 49 % 51 % 1023,4 hPa 0,0 l/m 4,0 km/h (1 Bft) NO 45 5 min 6,0 C 22,9 C 6,3 km/h (2 Bft)
04.05.2018 15:55 16,7 C 13,0 C 17,2 C 22,4 C 22,4 C 5,7 C 49 % 52 % 1023,3 hPa 0,0 l/m 4,8 km/h (1 Bft) NO 45 5 min 5,9 C 22,4 C 2,6 km/h (1 Bft)
04.05.2018 16:00 16,7 C 13,1 C 17,2 C 22,3 C 22,3 C 5,6 C 49 % 52 % 1023,3 hPa 0,0 l/m 4,7 km/h (1 Bft) NO 45 5 min 5,9 C 22,3 C 3,2 km/h (1 Bft)
04.05.2018 16:05 16,7 C 13,1 C 17,3 C 22,7 C 22,7 C 6,0 C 49 % 51 % 1023,3 hPa 0,0 l/m 3,4 km/h (1 Bft) O-NO 67 5 min 5,9 C 22,7 C 6,8 km/h (2 Bft)
04.05.2018 16:10 16,7 C 13,1 C 17,2 C 22,4 C 22,4 C 5,7 C 49 % 52 % 1023,3 hPa 0,0 l/m 3,2 km/h (1 Bft) S-SO 157 5 min 5,9 C 22,4 C 3,2 km/h (1 Bft)
04.05.2018 16:15 16,7 C 13,1 C 17,2 C 22,5 C 22,5 C 5,8 C 49 % 51 % 1023,2 hPa 0,0 l/m 4,3 km/h (1 Bft) NW 315 5 min 5,9 C 22,5 C 5,8 km/h (2 Bft)
04.05.2018 16:20 16,8 C 13,1 C 17,3 C 22,6 C 22,6 C 5,8 C 50 % 52 % 1023,2 hPa 0,0 l/m 4,5 km/h (1 Bft) SO 135 5 min 6,3 C 22,6 C 4,8 km/h (1 Bft)
04.05.2018 16:25 16,9 C 13,1 C 17,4 C 22,8 C 22,8 C 5,9 C 49 % 51 % 1023,2 hPa 0,0 l/m 3,4 km/h (1 Bft) N-NO 22 5 min 6,1 C 22,8 C 7,6 km/h (2 Bft)
04.05.2018 16:30 16,9 C 13,1 C 17,6 C 23,0 C 23,0 C 6,1 C 50 % 52 % 1023,2 hPa 0,0 l/m 2,4 km/h (1 Bft) SO 135 5 min 6,4 C 23,0 C 2,1 km/h (1 Bft)
04.05.2018 16:35 17,2 C 13,2 C 18,4 C 23,3 C 23,3 C 6,1 C 49 % 50 % 1023,3 hPa 0,0 l/m 3,4 km/h (1 Bft) W-NW 292 5 min 6,4 C 23,3 C 11,4 km/h (2 Bft)
04.05.2018 16:40 17,1 C 13,2 C 18,4 C 22,9 C 22,9 C 5,8 C 49 % 49 % 1023,3 hPa 0,0 l/m 4,2 km/h (1 Bft) O-NO 67 5 min 6,3 C 22,9 C 3,2 km/h (1 Bft)
04.05.2018 16:45 17,1 C 13,2 C 18,4 C 22,8 C 22,8 C 5,7 C 49 % 49 % 1023,3 hPa 0,0 l/m 4,2 km/h (1 Bft) N-NO 22 5 min 6,3 C 22,8 C 4,8 km/h (1 Bft)
04.05.2018 16:50 17,1 C 13,2 C 18,3 C 22,9 C 22,9 C 5,8 C 49 % 49 % 1023,3 hPa 0,0 l/m 3,1 km/h (1 Bft) W 270 5 min 6,3 C 22,9 C 3,4 km/h (1 Bft)
04.05.2018 16:55 17,1 C 13,2 C 18,3 C 23,1 C 23,1 C 6,0 C 49 % 50 % 1023,3 hPa 0,0 l/m 2,6 km/h (1 Bft) N-NO 22 5 min 6,3 C 23,1 C 3,2 km/h (1 Bft)
04.05.2018 17:00 17,3 C 13,2 C 18,1 C 23,5 C 23,5 C 6,2 C 49 % 50 % 1023,2 hPa 0,0 l/m 2,4 km/h (1 Bft) N 360 5 min 6,5 C 23,5 C 4,2 km/h (1 Bft)
04.05.2018 17:05 17,3 C 13,3 C 18,1 C 23,6 C 23,6 C 6,3 C 49 % 50 % 1023,2 hPa 0,0 l/m 2,9 km/h (1 Bft) W 270 5 min 6,5 C 23,6 C 5,0 km/h (1 Bft)
04.05.2018 17:10 17,5 C 13,3 C 17,9 C 23,5 C 23,5 C 6,0 C 48 % 51 % 1023,2 hPa 0,0 l/m 2,7 km/h (1 Bft) NW 315 5 min 6,4 C 23,5 C 5,1 km/h (1 Bft)
04.05.2018 17:15 17,2 C 13,3 C 17,9 C 23,2 C 23,2 C 6,0 C 48 % 50 % 1023,4 hPa 0,0 l/m 3,4 km/h (1 Bft) N-NW 337 5 min 6,1 C 23,2 C 3,7 km/h (1 Bft)
04.05.2018 17:20 17,3 C 13,3 C 17,7 C 22,7 C 22,7 C 5,4 C 49 % 51 % 1023,4 hPa 0,0 l/m 3,7 km/h (1 Bft) O 90 5 min 6,5 C 22,7 C 4,2 km/h (1 Bft)
04.05.2018 17:25 17,2 C 13,3 C 17,6 C 22,8 C 22,8 C 5,6 C 49 % 52 % 1023,4 hPa 0,0 l/m 3,2 km/h (1 Bft) NO 45 5 min 6,4 C 22,8 C 6,0 km/h (2 Bft)
04.05.2018 17:30 17,1 C 13,4 C 17,5 C 22,3 C 22,3 C 5,2 C 49 % 52 % 1023,4 hPa 0,0 l/m 3,7 km/h (1 Bft) S-SO 157 5 min 6,3 C 22,3 C 5,0 km/h (1 Bft)
04.05.2018 17:35 17,1 C 13,4 C 17,5 C 22,1 C 22,1 C 5,0 C 50 % 52 % 1023,2 hPa 0,0 l/m 3,9 km/h (1 Bft) O-NO 67 5 min 6,6 C 22,1 C 2,9 km/h (1 Bft)
04.05.2018 17:40 17,1 C 13,4 C 17,6 C 22,2 C 22,2 C 5,1 C 50 % 52 % 1023,2 hPa 0,0 l/m 3,1 km/h (1 Bft) O-NO 67 5 min 6,6 C 22,2 C 3,5 km/h (1 Bft)
04.05.2018 17:45 17,1 C 13,4 C 17,5 C 22,3 C 22,3 C 5,2 C 50 % 51 % 1023,2 hPa 0,0 l/m 2,6 km/h (1 Bft) N-NW 337 5 min 6,6 C 22,3 C 5,1 km/h (1 Bft)
04.05.2018 17:50 17,1 C 13,4 C 17,5 C 22,3 C 22,3 C 5,2 C 50 % 52 % 1023,2 hPa 0,0 l/m 2,9 km/h (1 Bft) O-SO 112 5 min 6,6 C 22,3 C 0,0 km/h (0 Bft)
04.05.2018 17:55 17,3 C 13,4 C 17,5 C 22,6 C 22,6 C 5,3 C 51 % 53 % 1023,4 hPa 0,0 l/m 2,6 km/h (1 Bft) O-NO 67 5 min 7,1 C 22,6 C 1,6 km/h (1 Bft)
04.05.2018 18:00 17,3 C 13,4 C 17,5 C 22,8 C 22,8 C 5,5 C 50 % 54 % 1023,4 hPa 0,0 l/m 1,8 km/h (1 Bft) NW 315 5 min 6,8 C 22,8 C 3,4 km/h (1 Bft)
04.05.2018 18:05 17,2 C 13,4 C 17,6 C 22,5 C 22,5 C 5,3 C 50 % 54 % 1023,4 hPa 0,0 l/m 2,7 km/h (1 Bft) O-NO 67 5 min 6,7 C 22,5 C 3,7 km/h (1 Bft)
04.05.2018 18:10 17,1 C 13,5 C 17,4 C 22,0 C 22,0 C 4,9 C 51 % 54 % 1023,4 hPa 0,0 l/m 3,2 km/h (1 Bft) O-NO 67 5 min 6,9 C 22,0 C 4,2 km/h (1 Bft)
04.05.2018 18:15 16,9 C 13,5 C 17,2 C 21,6 C 21,6 C 4,7 C 51 % 55 % 1023,3 hPa 0,0 l/m 2,6 km/h (1 Bft) NO 45 5 min 6,7 C 21,6 C 2,3 km/h (1 Bft)
04.05.2018 18:20 17,1 C 13,5 C 17,2 C 22,0 C 22,0 C 4,9 C 52 % 54 % 1023,3 hPa 0,0 l/m 2,3 km/h (1 Bft) O-NO 67 5 min 7,2 C 22,0 C 3,9 km/h (1 Bft)
04.05.2018 18:25 16,8 C 13,5 C 17,0 C 21,6 C 21,6 C 4,8 C 51 % 55 % 1023,3 hPa 0,0 l/m 2,6 km/h (1 Bft) O-NO 67 5 min 6,6 C 21,6 C 3,1 km/h (1 Bft)
04.05.2018 18:30 16,8 C 13,5 C 17,0 C 21,4 C 21,4 C 4,6 C 52 % 55 % 1023,3 hPa 0,0 l/m 2,7 km/h (1 Bft) NO 45 5 min 6,9 C 21,4 C 2,4 km/h (1 Bft)
04.05.2018 18:35 16,7 C 13,5 C 16,9 C 21,3 C 21,3 C 4,6 C 51 % 55 % 1023,4 hPa 0,0 l/m 2,4 km/h (1 Bft) N 360 5 min 6,5 C 21,3 C 1,9 km/h (1 Bft)
04.05.2018 18:40 16,7 C 13,5 C 16,7 C 20,9 C 20,9 C 4,2 C 51 % 55 % 1023,4 hPa 0,0 l/m 2,7 km/h (1 Bft) O 90 5 min 6,5 C 20,9 C 6,1 km/h (2 Bft)
04.05.2018 18:45 16,6 C 13,5 C 16,6 C 20,8 C 20,8 C 4,2 C 51 % 54 % 1023,4 hPa 0,0 l/m 2,7 km/h (1 Bft) O-NO 67 5 min 6,4 C 20,8 C 2,3 km/h (1 Bft)
04.05.2018 18:50 16,7 C 13,5 C 16,7 C 20,8 C 20,8 C 4,1 C 51 % 55 % 1023,4 hPa 0,0 l/m 1,8 km/h (1 Bft) O 90 5 min 6,5 C 20,8 C 1,9 km/h (1 Bft)
04.05.2018 18:55 16,7 C 13,5 C 16,4 C 20,4 C 20,4 C 3,7 C 51 % 55 % 1023,3 hPa 0,0 l/m 1,4 km/h (1 Bft) SO 135 5 min 6,5 C 20,4 C 3,2 km/h (1 Bft)
04.05.2018 19:00 16,4 C 13,5 C 16,3 C 19,9 C 19,9 C 3,5 C 51 % 56 % 1023,3 hPa 0,0 l/m 1,8 km/h (1 Bft) SO 135 5 min 6,2 C 19,9 C 2,6 km/h (1 Bft)
04.05.2018 19:05 16,5 C 13,7 C 16,2 C 19,9 C 19,9 C 3,4 C 52 % 57 % 1023,3 hPa 0,0 l/m 1,6 km/h (1 Bft) O-NO 67 5 min 6,6 C 19,9 C 2,7 km/h (1 Bft)
04.05.2018 19:10 16,3 C 13,7 C 16,1 C 19,7 C 19,7 C 3,4 C 53 % 57 % 1023,3 hPa 0,0 l/m 1,9 km/h (1 Bft) O-NO 67 5 min 6,7 C 19,7 C 2,3 km/h (1 Bft)
04.05.2018 19:15 16,3 C 13,7 C 16,1 C 19,6 C 19,6 C 3,3 C 52 % 57 % 1023,2 hPa 0,0 l/m 2,1 km/h (1 Bft) W-NW 292 5 min 6,4 C 19,6 C 2,3 km/h (1 Bft)
04.05.2018 19:20 16,1 C 13,7 C 15,9 C 19,4 C 19,4 C 3,3 C 53 % 58 % 1023,2 hPa 0,0 l/m 1,8 km/h (1 Bft) O-NO 67 5 min 6,5 C 19,4 C 2,9 km/h (1 Bft)
04.05.2018 19:25 16,1 C 13,7 C 15,8 C 19,0 C 19,0 C 2,9 C 53 % 57 % 1023,2 hPa 0,0 l/m 1,9 km/h (1 Bft) O-NO 67 5 min 6,5 C 19,0 C 0,0 km/h (0 Bft)
04.05.2018 19:30 15,9 C 13,7 C 15,6 C 18,4 C 18,4 C 2,5 C 54 % 59 % 1023,2 hPa 0,0 l/m 1,4 km/h (1 Bft) O-SO 112 5 min 6,6 C 18,4 C 1,9 km/h (1 Bft)
04.05.2018 19:35 15,9 C 13,7 C 15,5 C 18,1 C 18,1 C 2,2 C 54 % 59 % 1023,7 hPa 0,0 l/m 1,1 km/h (1 Bft) N-NO 22 5 min 6,6 C 18,1 C 2,7 km/h (1 Bft)
04.05.2018 19:40 15,6 C 13,7 C 15,5 C 17,8 C 17,8 C 2,2 C 54 % 60 % 1023,7 hPa 0,0 l/m 1,3 km/h (1 Bft) O-NO 67 5 min 6,3 C 17,8 C 2,4 km/h (1 Bft)
04.05.2018 19:45 15,6 C 13,7 C 15,2 C 17,6 C 17,6 C 2,0 C 55 % 61 % 1023,7 hPa 0,0 l/m 1,3 km/h (1 Bft) O-NO 67 5 min 6,6 C 17,6 C 2,7 km/h (1 Bft)
04.05.2018 19:50 15,4 C 13,7 C 15,1 C 17,0 C 17,0 C 1,6 C 55 % 61 % 1023,7 hPa 0,0 l/m 1,0 km/h (0 Bft) W-NW 292 5 min 6,4 C 17,0 C 0,0 km/h (0 Bft)
04.05.2018 19:55 15,2 C 13,7 C 14,8 C 16,5 C 16,5 C 1,3 C 55 % 62 % 1023,7 hPa 0,0 l/m 1,3 km/h (1 Bft) O-NO 67 5 min 6,2 C 16,5 C 1,9 km/h (1 Bft)
04.05.2018 20:00 15,1 C 13,7 C 14,5 C 15,6 C 15,6 C 0,5 C 56 % 62 % 1023,7 hPa 0,0 l/m 1,0 km/h (0 Bft) O-NO 67 0 min 6,4 C 15,6 C 2,1 km/h (1 Bft)
04.05.2018 20:05 15,0 C 13,7 C 14,5 C 15,2 C 15,2 C 0,2 C 56 % 63 % 1023,7 hPa 0,0 l/m 0,6 km/h (0 Bft) O-NO 67 0 min 6,3 C 15,2 C 0,0 km/h (0 Bft)
04.05.2018 20:10 14,8 C 13,7 C 14,1 C 14,8 C 14,7 C 0,0 C 56 % 63 % 1023,7 hPa 0,0 l/m 0,5 km/h (0 Bft) O-NO 67 0 min 6,1 C 14,7 C 0,0 km/h (0 Bft)
04.05.2018 20:15 14,6 C 13,8 C 13,9 C 14,5 C 14,3 C 0,0 C 57 % 63 % 1023,9 hPa 0,0 l/m 0,2 km/h (0 Bft) NO 45 0 min 6,2 C 14,3 C 0,0 km/h (0 Bft)
04.05.2018 20:20 14,5 C 13,8 C 13,8 C 14,3 C 13,8 C 0,0 C 57 % 65 % 1023,9 hPa 0,0 l/m 0,0 km/h (0 Bft) O-NO 67 0 min 6,1 C 13,8 C 0,0 km/h (0 Bft)
04.05.2018 20:25 14,3 C 13,8 C 13,5 C 14,0 C 13,5 C 0,0 C 58 % 66 % 1023,9 hPa 0,0 l/m 0,2 km/h (0 Bft) O-NO 67 0 min 6,2 C 13,5 C 1,8 km/h (1 Bft)
04.05.2018 20:30 14,1 C 13,8 C 13,3 C 13,8 C 13,1 C 0,0 C 59 % 67 % 1023,9 hPa 0,0 l/m 0,2 km/h (0 Bft) NO 45 0 min 6,2 C 13,1 C 0,0 km/h (0 Bft)
04.05.2018 20:35 13,9 C 13,8 C 13,1 C 13,6 C 13,0 C 0,0 C 59 % 67 % 1023,8 hPa 0,0 l/m 0,5 km/h (0 Bft) NO 45 0 min 6,0 C 13,0 C 1,6 km/h (1 Bft)
04.05.2018 20:40 13,7 C 13,8 C 12,9 C 13,3 C 12,6 C 0,0 C 61 % 68 % 1023,8 hPa 0,0 l/m 0,5 km/h (0 Bft) O-NO 67 0 min 6,3 C 12,6 C 1,6 km/h (1 Bft)
04.05.2018 20:45 13,5 C 13,8 C 12,7 C 13,2 C 12,5 C 0,0 C 61 % 69 % 1023,8 hPa 0,0 l/m 0,3 km/h (0 Bft) NO 45 0 min 6,1 C 12,5 C 1,6 km/h (1 Bft)
04.05.2018 20:50 13,2 C 13,8 C 12,4 C 12,9 C 12,2 C 0,0 C 62 % 69 % 1023,8 hPa 0,0 l/m 0,5 km/h (0 Bft) O-NO 67 0 min 6,1 C 12,2 C 0,0 km/h (0 Bft)
04.05.2018 20:55 13,1 C 13,8 C 12,3 C 12,7 C 12,0 C 0,0 C 63 % 70 % 1023,8 hPa 0,0 l/m 0,5 km/h (0 Bft) O-NO 67 0 min 6,2 C 12,0 C 0,0 km/h (0 Bft)
04.05.2018 21:00 12,9 C 13,8 C 12,1 C 12,6 C 11,9 C 0,0 C 64 % 72 % 1023,8 hPa 0,0 l/m 0,3 km/h (0 Bft) O-NO 67 0 min 6,3 C 11,9 C 1,6 km/h (1 Bft)
04.05.2018 21:05 12,9 C 13,8 C 11,9 C 12,5 C 11,7 C 0,0 C 64 % 71 % 1023,8 hPa 0,0 l/m 0,3 km/h (0 Bft) NW 315 0 min 6,3 C 11,7 C 0,0 km/h (0 Bft)
04.05.2018 21:10 12,7 C 13,8 C 11,9 C 12,3 C 11,4 C 0,0 C 64 % 73 % 1023,8 hPa 0,0 l/m 0,0 km/h (0 Bft) NO 45 0 min 6,1 C 11,4 C 0,0 km/h (0 Bft)
04.05.2018 21:15 12,5 C 13,9 C 11,9 C 12,1 C 11,3 C 0,0 C 65 % 73 % 1024,1 hPa 0,0 l/m 0,0 km/h (0 Bft) O-NO 67 0 min 6,1 C 11,3 C 0,0 km/h (0 Bft)
04.05.2018 21:20 12,3 C 13,9 C 11,6 C 11,9 C 11,1 C 0,0 C 65 % 74 % 1024,1 hPa 0,0 l/m 0,0 km/h (0 Bft) O-NO 67 0 min 5,9 C 11,1 C 0,0 km/h (0 Bft)
04.05.2018 21:25 12,3 C 13,9 C 11,5 C 11,8 C 10,9 C 0,0 C 66 % 74 % 1024,1 hPa 0,0 l/m 0,0 km/h (0 Bft) O-NO 67 0 min 6,1 C 10,9 C 0,0 km/h (0 Bft)
04.05.2018 21:30 12,0 C 13,9 C 11,3 C 11,6 C 10,8 C 0,0 C 67 % 75 % 1024,1 hPa 0,0 l/m 0,6 km/h (0 Bft) O-NO 67 0 min 6,1 C 10,8 C 2,7 km/h (1 Bft)
04.05.2018 21:35 11,9 C 13,9 C 11,2 C 11,5 C 10,7 C 0,0 C 68 % 75 % 1024,3 hPa 0,0 l/m 0,8 km/h (0 Bft) NW 315 0 min 6,2 C 10,7 C 0,0 km/h (0 Bft)
04.05.2018 21:40 11,6 C 13,9 C 11,1 C 11,2 C 10,5 C 0,0 C 68 % 76 % 1024,3 hPa 0,0 l/m 0,3 km/h (0 Bft) N-NO 22 0 min 5,9 C 10,5 C 0,0 km/h (0 Bft)
04.05.2018 21:45 11,5 C 13,9 C 10,9 C 11,1 C 10,3 C 0,0 C 68 % 76 % 1024,3 hPa 0,0 l/m 0,0 km/h (0 Bft) O-SO 112 0 min 5,8 C 10,3 C 0,0 km/h (0 Bft)
04.05.2018 21:50 11,3 C 13,9 C 10,7 C 10,9 C 10,0 C 0,0 C 68 % 76 % 1024,3 hPa 0,0 l/m 0,0 km/h (0 Bft) NW 315 0 min 5,6 C 10,0 C 0,0 km/h (0 Bft)
04.05.2018 21:55 11,2 C 13,9 C 10,7 C 10,7 C 9,7 C 0,0 C 69 % 77 % 1024,4 hPa 0,0 l/m 0,0 km/h (0 Bft) N-NW 337 0 min 5,7 C 9,7 C 0,0 km/h (0 Bft)
04.05.2018 22:00 11,1 C 13,9 C 10,6 C 10,6 C 9,5 C 0,0 C 70 % 78 % 1024,4 hPa 0,0 l/m 0,0 km/h (0 Bft) NO 45 0 min 5,8 C 9,5 C 0,0 km/h (0 Bft)
04.05.2018 22:05 10,9 C 13,9 C 10,5 C 10,4 C 9,4 C 0,0 C 70 % 77 % 1024,4 hPa 0,0 l/m 0,0 km/h (0 Bft) N-NW 337 0 min 5,6 C 9,4 C 0,0 km/h (0 Bft)
04.05.2018 22:10 10,8 C 13,9 C 10,3 C 10,3 C 9,3 C 0,0 C 70 % 79 % 1024,4 hPa 0,0 l/m 0,0 km/h (0 Bft) N-NO 22 0 min 5,6 C 9,3 C 0,0 km/h (0 Bft)
04.05.2018 22:15 10,7 C 13,9 C 10,2 C 10,2 C 9,1 C 0,0 C 71 % 79 % 1024,7 hPa 0,0 l/m 0,0 km/h (0 Bft) NW 315 0 min 5,7 C 9,1 C 0,0 km/h (0 Bft)
04.05.2018 22:20 10,5 C 13,8 C 10,2 C 10,0 C 8,9 C 0,0 C 71 % 79 % 1024,7 hPa 0,0 l/m 0,0 km/h (0 Bft) N-NO 22 0 min 5,5 C 8,9 C 0,0 km/h (0 Bft)
04.05.2018 22:25 10,5 C 13,9 C 10,0 C 9,9 C 8,8 C 0,0 C 72 % 79 % 1024,7 hPa 0,0 l/m 0,0 km/h (0 Bft) N-NO 22 0 min 5,7 C 8,8 C 0,0 km/h (0 Bft)
04.05.2018 22:30 10,3 C 13,8 C 10,0 C 9,7 C 8,5 C 0,0 C 72 % 80 % 1024,7 hPa 0,0 l/m 0,0 km/h (0 Bft) W-SW 247 0 min 5,5 C 8,5 C 0,0 km/h (0 Bft)
04.05.2018 22:35 10,1 C 13,8 C 9,8 C 9,5 C 8,4 C 0,0 C 72 % 80 % 1024,6 hPa 0,0 l/m 0,0 km/h (0 Bft) W 270 0 min 5,3 C 8,4 C 0,0 km/h (0 Bft)
04.05.2018 22:40 10,0 C 13,8 C 9,7 C 9,4 C 8,2 C 0,0 C 73 % 80 % 1024,6 hPa 0,0 l/m 0,0 km/h (0 Bft) O-NO 67 0 min 5,4 C 8,2 C 0,0 km/h (0 Bft)
04.05.2018 22:45 9,9 C 13,8 C 9,6 C 9,3 C 8,1 C 0,0 C 73 % 81 % 1024,6 hPa 0,0 l/m 0,0 km/h (0 Bft) N-NW 337 0 min 5,3 C 8,1 C 0,0 km/h (0 Bft)
04.05.2018 22:50 9,7 C 13,8 C 9,6 C 9,1 C 8,0 C 0,0 C 74 % 81 % 1024,6 hPa 0,0 l/m 0,0 km/h (0 Bft) NW 315 0 min 5,3 C 8,0 C 0,0 km/h (0 Bft)
04.05.2018 22:55 9,6 C 13,8 C 9,5 C 9,0 C 7,8 C 0,0 C 75 % 82 % 1024,9 hPa 0,0 l/m 0,0 km/h (0 Bft) S 180 0 min 5,4 C 7,8 C 0,0 km/h (0 Bft)
04.05.2018 23:00 9,5 C 13,8 C 9,3 C 8,9 C 7,6 C 0,0 C 75 % 82 % 1024,9 hPa 0,0 l/m 0,0 km/h (0 Bft) W-SW 247 0 min 5,3 C 7,6 C 0,0 km/h (0 Bft)
04.05.2018 23:05 9,5 C 13,8 C 9,2 C 8,8 C 7,5 C 0,0 C 75 % 82 % 1024,9 hPa 0,0 l/m 0,0 km/h (0 Bft) NW 315 0 min 5,3 C 7,5 C 0,0 km/h (0 Bft)
04.05.2018 23:10 9,3 C 13,8 C 9,1 C 8,7 C 7,5 C 0,0 C 76 % 83 % 1024,9 hPa 0,0 l/m 0,0 km/h (0 Bft) O-NO 67 0 min 5,3 C 7,5 C 0,0 km/h (0 Bft)
04.05.2018 23:15 9,3 C 13,8 C 9,0 C 8,7 C 7,5 C 0,0 C 76 % 83 % 1024,8 hPa 0,0 l/m 0,0 km/h (0 Bft) NO 45 0 min 5,3 C 7,5 C 0,0 km/h (0 Bft)
04.05.2018 23:20 9,1 C 13,8 C 8,9 C 8,5 C 7,3 C 0,0 C 77 % 83 % 1024,8 hPa 0,0 l/m 0,0 km/h (0 Bft) W-NW 292 0 min 5,3 C 7,3 C 0,0 km/h (0 Bft)
04.05.2018 23:25 9,1 C 13,8 C 8,8 C 8,5 C 7,2 C 0,0 C 77 % 83 % 1024,8 hPa 0,0 l/m 0,0 km/h (0 Bft) W-SW 247 0 min 5,3 C 7,2 C 0,0 km/h (0 Bft)
04.05.2018 23:30 8,8 C 13,8 C 8,7 C 8,2 C 7,0 C 0,0 C 77 % 84 % 1024,8 hPa 0,0 l/m 0,0 km/h (0 Bft) N-NO 22 0 min 5,0 C 7,0 C 0,0 km/h (0 Bft)
04.05.2018 23:35 8,8 C 13,8 C 8,6 C 8,2 C 7,0 C 0,0 C 77 % 84 % 1025,3 hPa 0,0 l/m 0,0 km/h (0 Bft) N-NO 22 0 min 5,0 C 7,0 C 0,0 km/h (0 Bft)
04.05.2018 23:40 8,6 C 13,8 C 8,7 C 8,0 C 6,9 C 0,0 C 77 % 84 % 1025,3 hPa 0,0 l/m 0,0 km/h (0 Bft) NW 315 0 min 4,8 C 6,9 C 0,0 km/h (0 Bft)
04.05.2018 23:45 8,7 C 13,8 C 8,5 C 8,1 C 6,8 C 0,0 C 78 % 84 % 1025,3 hPa 0,0 l/m 0,0 km/h (0 Bft) W 270 0 min 5,1 C 6,8 C 0,0 km/h (0 Bft)
04.05.2018 23:50 8,5 C 13,8 C 8,4 C 7,9 C 6,7 C 0,0 C 78 % 84 % 1025,3 hPa 0,0 l/m 0,0 km/h (0 Bft) NW 315 0 min 4,9 C 6,7 C 0,0 km/h (0 Bft)
04.05.2018 23:55 8,4 C 13,8 C 8,3 C 7,8 C 6,7 C 0,0 C 79 % 85 % 1025,8 hPa 0,0 l/m 0,0 km/h (0 Bft) O-NO 67 0 min 5,0 C 6,7 C 0,0 km/h (0 Bft)
_ Min-Zeit 23:55 10:25 23:55 23:55 23:50 00:00 17:10 13:45 00:00 - 20:20 - - - 05:55 23:50 05:05
Minimum _ 8,4 C 12,8 C 8,3 C 7,8 C 6,7 C 0,0 C 48 % 47 % 1019,9 hPa - 0,0 km/h (0 Bft) - - - 2,1 C 6,7 C 0,0 km/h (0 Bft)
_ Max-Zeit 17:10 00:20 14:05 17:05 17:05 15:45 23:55 23:55 23:55 00:00 09:15 - - 10:35 18:20 17:05 03:45
Maximum _ 17,5 C 13,9 C 18,7 C 23,6 C 23,6 C 6,3 C 79 % 85 % 1025,8 hPa 0,0 l/m 7,2 km/h
O-NO (2 Bft)
- - 5 min 7,2 C 23,6 C 15,1 km/h
NO (3 Bft)
Durchschnitt _ 12,8 C 13,3 C 13,2 C 14,8 C 14,6 C 2,1 C 59 % 62 % 1023,0 hPa #0,0 l/m 2,9 km/h (1 Bft) O-NO - #8:30 h 4,9 C 14,6 C 3,7 km/h (1 Bft)
2018 www.wetterstation-wechselburg.de